World > North America > United States > Minnesota

Hourly St. James, MN Regional Weather

Feedback E-mail the Weather

Quick WX

St. James, MN Weather Maps

°F °C°F °C
Saint James Weather Map
UTC Time: 7/6/2022, 03:32
Your Time:

St. James, MN Regional Weather

Expires:202207060400;;761753
ASUS43 KMPX 060310
RWRMN 
WEATHER ROUNDUP FOR MINNESOTA
NATIONAL WEATHER SERVICE TWIN CITIES/CHANHASSEN MN
1000 PM CDT TUE JUL 05 2022


NOTE: "FAIR" INDICATES FEW OR NO CLOUDS BELOW 12,000 FEET WITH NO
SIGNIFICANT WEATHER AND/OR OBSTRUCTIONS TO VISIBILITY. N/A MEANS
CURRENT SKY AND/OR WEATHER CONDITIONS ARE NOT AVAILABLE.


MNZ065>067-074>077-082>085-091>093-060400-
   South Central Minnesota  
  
CITY           SKY/WX    TMP DP  RH WIND       PRES   REMARKS
MANKATO        CLOUDY    75  73  93 N12       29.87R                  
NEW ULM        CLOUDY    73  70  88 NE6       29.87R                  
ST JAMES       CLOUDY    73  72  94 NW5       29.87R                  
GLENCOE        CLOUDY    73  71  91 NE5       29.88R                  
FARIBAULT      CLOUDY    75  72  88 N8        29.86R                  
OWATONNA         N/A     77  73  88 NE10      29.84R                  
WASECA         CLOUDY    72  70  94 N9        29.86R                  
ALBERT LEA     CLOUDY    70  70 100 E6        29.78R                  
$$

SKY/WX - Weather  TMP - Temperature  DP - Dew Point  RH - Humidity
WIND - Wind Direction/Speed PRES - Barometric Pressure VSB - Visibility
WCI - Wind Chill Index E13G22 Wind - East Wind 13 mph/Gusts of 22 mph

Trending Headlines

St. James Radar Loop



St. James Quick Facts


National Two Day Weather Forecast


E-mail the St. James Weather Forecast

Voice your opinion or tell us about page issues...